Time,TemperatureF,DewpointF,PressureIn,WindDirection,WindDirectionDegrees,WindSpeedMPH,WindSpeedGustMPH,Humidity,HourlyPrecipIn,Conditions,Clouds,dailyrainin,SoftwareType,DateUTC
2013-01-30 00:04:00,59.0,52.0,29.73,SSE,165,4.0,-999.0,77,-99.99,,,-99.99,,2013-01-30 05:04:00,
2013-01-30 00:12:00,59.0,52.0,29.73,SSE,165,4.0,-999.0,77,-99.99,,,-99.99,,2013-01-30 05:12:00,
2013-01-30 00:22:00,59.0,52.0,29.72,SSE,164,3.0,-999.0,77,-99.99,,,-99.99,,2013-01-30 05:22:00,
2013-01-30 00:32:00,59.0,52.0,29.72,South,173,2.0,-999.0,77,-99.99,,,-99.99,,2013-01-30 05:32:00,
2013-01-30 00:43:00,59.0,52.0,29.72,South,173,2.0,-999.0,77,-99.99,,,-99.99,,2013-01-30 05:43:00,
2013-01-30 00:52:00,59.0,52.0,29.71,SSE,163,3.0,-999.0,78,-99.99,,,-99.99,,2013-01-30 05:52:00,
2013-01-30 01:02:00,59.0,52.0,29.70,South,173,4.0,-999.0,77,-99.99,,,-99.99,,2013-01-30 06:02:00,
2013-01-30 01:11:00,59.0,52.0,29.70,South,173,4.0,-999.0,77,-99.99,,,-99.99,,2013-01-30 06:11:00,
2013-01-30 01:21:00,59.0,52.0,29.68,SSE,158,3.0,-999.0,77,-99.99,,,-99.99,,2013-01-30 06:21:00,
2013-01-30 01:32:00,59.0,51.0,29.67,ESE,115,4.0,-999.0,76,-99.99,,,-99.99,,2013-01-30 06:32:00,
2013-01-30 01:42:00,59.0,51.0,29.67,ESE,115,4.0,-999.0,76,-99.99,,,-99.99,,2013-01-30 06:42:00,
2013-01-30 01:52:00,58.0,50.0,29.66,South,169,3.0,-999.0,75,-99.99,,,-99.99,,2013-01-30 06:52:00,
2013-01-30 02:02:00,59.0,51.0,29.65,South,173,5.0,-999.0,74,-99.99,,,-99.99,,2013-01-30 07:02:00,
2013-01-30 02:11:00,59.0,51.0,29.65,South,173,5.0,-999.0,74,-99.99,,,-99.99,,2013-01-30 07:11:00,
2013-01-30 02:22:00,59.0,50.0,29.63,SSE,152,6.0,-999.0,73,-99.99,,,-99.99,,2013-01-30 07:22:00,
2013-01-30 02:32:00,59.0,50.0,29.63,South,180,4.0,-999.0,72,-99.99,,,-99.99,,2013-01-30 07:32:00,
2013-01-30 02:42:00,59.0,50.0,29.63,South,180,4.0,-999.0,72,-99.99,,,-99.99,,2013-01-30 07:42:00,
2013-01-30 02:52:00,59.0,50.0,29.62,SSW,205,5.0,-999.0,72,-99.99,,,-99.99,,2013-01-30 07:52:00,
2013-01-30 03:02:00,59.0,50.0,29.62,South,175,5.0,-999.0,71,-99.99,,,-99.99,,2013-01-30 08:02:00,
2013-01-30 03:11:00,59.0,50.0,29.62,South,175,5.0,-999.0,71,-99.99,,,-99.99,,2013-01-30 08:11:00,
2013-01-30 03:22:00,59.0,50.0,29.61,South,186,5.0,-999.0,71,-99.99,,,-99.99,,2013-01-30 08:22:00,
2013-01-30 03:32:00,59.0,50.0,29.60,SSW,192,5.0,-999.0,71,-99.99,,,-99.99,,2013-01-30 08:32:00,
2013-01-30 03:42:00,59.0,50.0,29.60,SSW,192,5.0,-999.0,71,-99.99,,,-99.99,,2013-01-30 08:42:00,
2013-01-30 03:52:00,59.0,50.0,29.61,South,188,4.0,-999.0,71,-99.99,,,-99.99,,2013-01-30 08:52:00,
2013-01-30 04:02:00,59.0,49.0,29.59,SSW,196,4.0,-999.0,70,-99.99,,,-99.99,,2013-01-30 09:02:00,
2013-01-30 04:11:00,59.0,49.0,29.59,SSW,196,4.0,-999.0,70,-99.99,,,-99.99,,2013-01-30 09:11:00,
2013-01-30 04:22:00,59.0,50.0,29.57,South,174,5.0,-999.0,71,-99.99,,,-99.99,,2013-01-30 09:22:00,
2013-01-30 04:32:00,59.0,50.0,29.57,SSE,163,4.0,-999.0,71,-99.99,,,-99.99,,2013-01-30 09:32:00,
2013-01-30 04:42:00,59.0,50.0,29.57,SSE,163,4.0,-999.0,71,-99.99,,,-99.99,,2013-01-30 09:42:00,
2013-01-30 04:51:00,59.0,49.0,29.55,SSW,207,4.0,-999.0,70,-99.99,,,-99.99,,2013-01-30 09:51:00,
2013-01-30 05:02:00,60.0,50.0,29.54,SE,141,6.0,-999.0,70,-99.99,,,-99.99,,2013-01-30 10:02:00,
2013-01-30 05:11:00,60.0,50.0,29.54,SE,141,6.0,-999.0,70,-99.99,,,-99.99,,2013-01-30 10:11:00,
2013-01-30 05:21:00,60.0,50.0,29.52,South,183,5.0,-999.0,70,-99.99,,,-99.99,,2013-01-30 10:21:00,
2013-01-30 05:32:00,60.0,50.0,29.52,South,183,5.0,-999.0,70,-99.99,,,-99.99,,2013-01-30 10:32:00,
2013-01-30 05:42:00,60.0,50.0,29.52,South,183,5.0,-999.0,70,-99.99,,,-99.99,,2013-01-30 10:42:00,
2013-01-30 05:52:00,61.0,51.0,29.51,SSE,154,6.0,-999.0,69,-99.99,,,-99.99,,2013-01-30 10:52:00,
2013-01-30 06:02:00,61.0,51.0,29.51,SSW,193,7.0,-999.0,69,-99.99,,,-99.99,,2013-01-30 11:02:00,
2013-01-30 06:11:00,61.0,51.0,29.51,SSW,193,7.0,-999.0,69,-99.99,,,-99.99,,2013-01-30 11:11:00,
2013-01-30 06:22:00,61.0,51.0,29.49,SSE,151,6.0,-999.0,69,-99.99,,,-99.99,,2013-01-30 11:22:00,
2013-01-30 06:33:00,61.0,51.0,29.48,SE,128,6.0,-999.0,70,-99.99,,,-99.99,,2013-01-30 11:33:00,
2013-01-30 06:42:00,61.0,51.0,29.48,SE,128,6.0,-999.0,70,-99.99,,,-99.99,,2013-01-30 11:42:00,
2013-01-30 06:52:00,61.0,51.0,29.46,SSE,159,6.0,-999.0,70,-99.99,,,-99.99,,2013-01-30 11:52:00,
2013-01-30 07:02:00,61.0,52.0,29.46,SE,144,5.0,-999.0,71,-99.99,,,-99.99,,2013-01-30 12:02:00,
2013-01-30 07:12:00,61.0,52.0,29.46,SE,144,5.0,-999.0,71,-99.99,,,-99.99,,2013-01-30 12:12:00,
2013-01-30 07:22:00,61.0,52.0,29.44,South,175,7.0,-999.0,71,-99.99,,,-99.99,,2013-01-30 12:22:00,
2013-01-30 07:33:00,61.0,52.0,29.44,South,175,7.0,-999.0,71,-99.99,,,-99.99,,2013-01-30 12:33:00,
2013-01-30 07:43:00,61.0,52.0,29.44,South,175,7.0,-999.0,71,-99.99,,,-99.99,,2013-01-30 12:43:00,
2013-01-30 08:03:00,62.0,53.0,29.44,South,178,7.0,-999.0,73,-99.99,,,-99.99,,2013-01-30 13:03:00,
2013-01-30 08:12:00,62.0,53.0,29.44,South,178,7.0,-999.0,73,-99.99,,,-99.99,,2013-01-30 13:12:00,
2013-01-30 08:23:00,62.0,53.0,29.44,South,170,6.0,-999.0,73,-99.99,,,-99.99,,2013-01-30 13:23:00,
2013-01-30 08:33:00,62.0,53.0,29.42,SSW,211,6.0,-999.0,73,-99.99,,,-99.99,,2013-01-30 13:33:00,
2013-01-30 08:43:00,62.0,53.0,29.42,SSW,211,6.0,-999.0,73,-99.99,,,-99.99,,2013-01-30 13:43:00,
2013-01-30 08:52:00,62.0,53.0,29.41,SE,136,7.0,-999.0,73,-99.99,,,-99.99,,2013-01-30 13:52:00,
2013-01-30 09:03:00,62.0,53.0,29.40,South,180,6.0,-999.0,73,-99.99,,,-99.99,,2013-01-30 14:03:00,
2013-01-30 09:12:00,62.0,53.0,29.40,South,180,6.0,-999.0,73,-99.99,,,-99.99,,2013-01-30 14:12:00,
2013-01-30 09:23:00,63.0,54.0,29.38,South,189,8.0,-999.0,72,-99.99,,,-99.99,,2013-01-30 14:23:00,
2013-01-30 09:33:00,63.0,54.0,29.37,SSE,149,9.0,-999.0,72,-99.99,,,-99.99,,2013-01-30 14:33:00,
2013-01-30 09:42:00,63.0,54.0,29.37,SSE,149,9.0,-999.0,72,-99.99,,,-99.99,,2013-01-30 14:42:00,
2013-01-30 09:52:00,64.0,54.0,29.37,SSW,195,7.0,-999.0,71,-99.99,,,-99.99,,2013-01-30 14:52:00,
2013-01-30 10:03:00,64.0,54.0,29.35,SE,144,8.0,-999.0,70,-99.99,,,-99.99,,2013-01-30 15:03:00,
2013-01-30 10:12:00,64.0,54.0,29.35,SE,144,8.0,-999.0,70,-99.99,,,-99.99,,2013-01-30 15:12:00,
2013-01-30 10:23:00,64.0,54.0,29.34,SSW,209,6.0,-999.0,70,-99.99,,,-99.99,,2013-01-30 15:23:00,
2013-01-30 10:33:00,65.0,55.0,29.38,SW,229,6.0,-999.0,70,-99.99,,,-99.99,,2013-01-30 15:33:00,
2013-01-30 10:43:00,65.0,55.0,29.38,SW,229,6.0,-999.0,70,-99.99,,,-99.99,,2013-01-30 15:43:00,
2013-01-30 10:53:00,63.0,56.0,29.44,West,261,9.0,-999.0,79,-99.99,,,-99.99,,2013-01-30 15:53:00,
2013-01-30 11:03:00,61.0,56.0,29.44,West,275,5.0,-999.0,83,-99.99,,,-99.99,,2013-01-30 16:03:00,
2013-01-30 11:12:00,61.0,56.0,29.44,West,275,5.0,-999.0,83,-99.99,,,-99.99,,2013-01-30 16:12:00,
2013-01-30 11:23:00,60.0,55.0,29.45,West,263,4.0,-999.0,85,-99.99,,,-99.99,,2013-01-30 16:23:00,
2013-01-30 11:32:00,60.0,55.0,29.44,West,268,4.0,-999.0,85,-99.99,,,-99.99,,2013-01-30 16:32:00,
2013-01-30 11:42:00,60.0,55.0,29.44,West,268,4.0,-999.0,85,-99.99,,,-99.99,,2013-01-30 16:42:00,
2013-01-30 11:52:00,60.0,55.0,29.44,West,268,4.0,-999.0,85,-99.99,,,-99.99,,2013-01-30 16:52:00,
2013-01-30 12:02:00,60.0,55.0,29.42,SW,233,3.0,-999.0,84,-99.99,,,-99.99,,2013-01-30 17:02:00,
2013-01-30 12:13:00,60.0,55.0,29.42,SW,233,3.0,-999.0,84,-99.99,,,-99.99,,2013-01-30 17:13:00,
2013-01-30 12:23:00,60.0,55.0,29.42,SSW,203,5.0,-999.0,83,-99.99,,,-99.99,,2013-01-30 17:23:00,
2013-01-30 12:33:00,60.0,55.0,29.42,SSW,206,5.0,-999.0,84,-99.99,,,-99.99,,2013-01-30 17:33:00,
2013-01-30 12:43:00,60.0,55.0,29.42,SSW,206,5.0,-999.0,84,-99.99,,,-99.99,,2013-01-30 17:43:00,
2013-01-30 12:53:00,59.0,54.0,29.43,SW,217,7.0,-999.0,84,-99.99,,,-99.99,,2013-01-30 17:53:00,
2013-01-30 13:03:00,59.0,55.0,29.42,SSW,203,8.0,-999.0,86,-99.99,,,-99.99,,2013-01-30 18:03:00,
2013-01-30 13:13:00,59.0,55.0,29.42,SSW,203,8.0,-999.0,86,-99.99,,,-99.99,,2013-01-30 18:13:00,
2013-01-30 13:23:00,58.0,54.0,29.43,SSW,198,7.0,-999.0,88,-99.99,,,-99.99,,2013-01-30 18:23:00,
2013-01-30 13:33:00,57.0,54.0,29.42,SSW,203,7.0,-999.0,89,-99.99,,,-99.99,,2013-01-30 18:33:00,
2013-01-30 13:43:00,57.0,54.0,29.42,SSW,203,7.0,-999.0,89,-99.99,,,-99.99,,2013-01-30 18:43:00,
2013-01-30 14:03:00,56.0,53.0,29.44,South,184,7.0,-999.0,91,-99.99,,,-99.99,,2013-01-30 19:03:00,
2013-01-30 14:13:00,56.0,53.0,29.44,South,184,7.0,-999.0,91,-99.99,,,-99.99,,2013-01-30 19:13:00,
2013-01-30 14:22:00,56.0,54.0,29.42,South,176,6.0,-999.0,92,-99.99,,,-99.99,,2013-01-30 19:22:00,
2013-01-30 14:33:00,55.0,53.0,29.42,SSW,210,6.0,-999.0,92,-99.99,,,-99.99,,2013-01-30 19:33:00,
2013-01-30 14:43:00,55.0,53.0,29.42,SSW,210,6.0,-999.0,92,-99.99,,,-99.99,,2013-01-30 19:43:00,
2013-01-30 14:52:00,55.0,53.0,29.41,South,176,5.0,-999.0,93,-99.99,,,-99.99,,2013-01-30 19:52:00,
2013-01-30 15:03:00,55.0,53.0,29.40,South,178,5.0,-999.0,94,-99.99,,,-99.99,,2013-01-30 20:03:00,
2013-01-30 15:12:00,55.0,53.0,29.40,South,178,5.0,-999.0,94,-99.99,,,-99.99,,2013-01-30 20:12:00,
2013-01-30 15:22:00,54.0,52.0,29.41,South,186,5.0,-999.0,94,-99.99,,,-99.99,,2013-01-30 20:22:00,
2013-01-30 15:33:00,54.0,53.0,29.41,ESE,117,6.0,-999.0,95,-99.99,,,-99.99,,2013-01-30 20:33:00,
2013-01-30 15:42:00,54.0,53.0,29.41,ESE,117,6.0,-999.0,95,-99.99,,,-99.99,,2013-01-30 20:42:00,
2013-01-30 15:52:00,54.0,53.0,29.39,SSE,167,5.0,-999.0,95,-99.99,,,-99.99,,2013-01-30 20:52:00,
2013-01-30 16:04:00,54.0,53.0,29.37,SE,132,5.0,-999.0,95,-99.99,,,-99.99,,2013-01-30 21:04:00,
2013-01-30 16:12:00,54.0,53.0,29.37,SE,132,5.0,-999.0,95,-99.99,,,-99.99,,2013-01-30 21:12:00,
2013-01-30 16:23:00,54.0,53.0,29.38,SSE,165,6.0,-999.0,95,-99.99,,,-99.99,,2013-01-30 21:23:00,
2013-01-30 16:32:00,53.0,52.0,29.39,SW,228,5.0,-999.0,95,-99.99,,,-99.99,,2013-01-30 21:32:00,
2013-01-30 16:42:00,53.0,52.0,29.39,SW,228,5.0,-999.0,95,-99.99,,,-99.99,,2013-01-30 21:42:00,
2013-01-30 16:52:00,53.0,52.0,29.37,SE,128,6.0,-999.0,96,-99.99,,,-99.99,,2013-01-30 21:52:00,
2013-01-30 17:03:00,53.0,52.0,29.36,SE,146,7.0,-999.0,96,-99.99,,,-99.99,,2013-01-30 22:03:00,
2013-01-30 17:12:00,53.0,52.0,29.36,SE,146,7.0,-999.0,96,-99.99,,,-99.99,,2013-01-30 22:12:00,
2013-01-30 17:22:00,53.0,52.0,29.34,SE,126,7.0,-999.0,96,-99.99,,,-99.99,,2013-01-30 22:22:00,
2013-01-30 17:32:00,53.0,52.0,29.32,SE,133,8.0,-999.0,96,-99.99,,,-99.99,,2013-01-30 22:32:00,
2013-01-30 17:42:00,53.0,52.0,29.32,SE,133,8.0,-999.0,96,-99.99,,,-99.99,,2013-01-30 22:42:00,
2013-01-30 17:52:00,53.0,52.0,29.32,South,178,6.0,-999.0,96,-99.99,,,-99.99,,2013-01-30 22:52:00,
2013-01-30 18:02:00,53.0,52.0,29.29,SE,133,8.0,-999.0,96,-99.99,,,-99.99,,2013-01-30 23:02:00,
2013-01-30 18:12:00,53.0,52.0,29.29,SE,133,8.0,-999.0,96,-99.99,,,-99.99,,2013-01-30 23:12:00,
2013-01-30 18:22:00,53.0,52.0,29.28,SSE,149,8.0,-999.0,97,-99.99,,,-99.99,,2013-01-30 23:22:00,
2013-01-30 18:33:00,53.0,52.0,29.28,SSE,150,8.0,-999.0,97,-99.99,,,-99.99,,2013-01-30 23:33:00,
2013-01-30 18:42:00,53.0,52.0,29.28,SSE,150,8.0,-999.0,97,-99.99,,,-99.99,,2013-01-30 23:42:00,
2013-01-30 18:52:00,53.0,52.0,29.26,SE,126,8.0,-999.0,97,-99.99,,,-99.99,,2013-01-30 23:52:00,
2013-01-30 19:02:00,53.0,52.0,29.26,SE,128,8.0,-999.0,97,-99.99,,,-99.99,,2013-01-31 00:02:00,
2013-01-30 19:11:00,53.0,52.0,29.26,SE,128,8.0,-999.0,97,-99.99,,,-99.99,,2013-01-31 00:11:00,
2013-01-30 19:22:00,53.0,52.0,29.24,SE,138,9.0,-999.0,97,-99.99,,,-99.99,,2013-01-31 00:22:00,
2013-01-30 19:32:00,54.0,53.0,29.23,ESE,123,9.0,-999.0,97,-99.99,,,-99.99,,2013-01-31 00:32:00,
2013-01-30 19:42:00,54.0,53.0,29.23,ESE,123,9.0,-999.0,97,-99.99,,,-99.99,,2013-01-31 00:42:00,
2013-01-30 19:53:00,54.0,53.0,29.22,SSE,167,7.0,-999.0,97,-99.99,,,-99.99,,2013-01-31 00:53:00,
2013-01-30 20:02:00,54.0,53.0,29.22,South,182,6.0,-999.0,96,-99.99,,,-99.99,,2013-01-31 01:02:00,
2013-01-30 20:12:00,54.0,53.0,29.22,South,182,6.0,-999.0,96,-99.99,,,-99.99,,2013-01-31 01:12:00,
2013-01-30 20:22:00,54.0,53.0,29.19,ESE,117,7.0,-999.0,96,-99.99,,,-99.99,,2013-01-31 01:22:00,
2013-01-30 20:32:00,54.0,53.0,29.19,South,184,7.0,-999.0,96,-99.99,,,-99.99,,2013-01-31 01:32:00,
2013-01-30 20:42:00,54.0,53.0,29.19,South,184,7.0,-999.0,96,-99.99,,,-99.99,,2013-01-31 01:42:00,
2013-01-30 20:52:00,54.0,53.0,29.19,SSW,206,8.0,-999.0,96,-99.99,,,-99.99,,2013-01-31 01:52:00,
2013-01-30 21:01:00,54.0,53.0,29.19,SSW,210,8.0,-999.0,96,-99.99,,,-99.99,,2013-01-31 02:01:00,
2013-01-30 21:12:00,54.0,53.0,29.19,SSW,210,8.0,-999.0,96,-99.99,,,-99.99,,2013-01-31 02:12:00,
2013-01-30 21:22:00,54.0,53.0,29.18,South,173,7.0,-999.0,95,-99.99,,,-99.99,,2013-01-31 02:22:00,
2013-01-30 21:32:00,54.0,52.0,29.16,SSW,211,7.0,-999.0,94,-99.99,,,-99.99,,2013-01-31 02:32:00,
2013-01-30 21:42:00,54.0,52.0,29.16,SSW,211,7.0,-999.0,94,-99.99,,,-99.99,,2013-01-31 02:42:00,
2013-01-30 21:52:00,54.0,52.0,29.16,SSW,211,7.0,-999.0,94,-99.99,,,-99.99,,2013-01-31 02:52:00,
2013-01-30 22:03:00,52.0,50.0,29.17,SSW,207,7.0,-999.0,93,-99.99,,,-99.99,,2013-01-31 03:03:00,
2013-01-30 22:11:00,52.0,50.0,29.17,SSW,207,7.0,-999.0,93,-99.99,,,-99.99,,2013-01-31 03:11:00,
2013-01-30 22:22:00,51.0,49.0,29.16,SSW,211,10.0,-999.0,93,-99.99,,,-99.99,,2013-01-31 03:22:00,
2013-01-30 22:32:00,51.0,49.0,29.16,South,191,9.0,-999.0,93,-99.99,,,-99.99,,2013-01-31 03:32:00,
2013-01-30 22:42:00,51.0,49.0,29.16,South,191,9.0,-999.0,93,-99.99,,,-99.99,,2013-01-31 03:42:00,
2013-01-30 22:52:00,51.0,49.0,29.14,SW,225,9.0,-999.0,93,-99.99,,,-99.99,,2013-01-31 03:52:00,
2013-01-30 23:02:00,50.0,47.0,29.14,SSW,198,9.0,-999.0,91,-99.99,,,-99.99,,2013-01-31 04:02:00,
2013-01-30 23:11:00,50.0,47.0,29.14,SSW,198,9.0,-999.0,91,-99.99,,,-99.99,,2013-01-31 04:11:00,
2013-01-30 23:22:00,50.0,47.0,29.15,SSW,196,11.0,-999.0,89,-99.99,,,-99.99,,2013-01-31 04:22:00,
2013-01-30 23:32:00,49.0,46.0,29.17,WSW,257,9.0,-999.0,89,-99.99,,,-99.99,,2013-01-31 04:32:00,
2013-01-30 23:42:00,49.0,46.0,29.17,WSW,257,9.0,-999.0,89,-99.99,,,-99.99,,2013-01-31 04:42:00,
2013-01-30 23:52:00,48.0,44.0,29.15,WSW,240,7.0,-999.0,86,-99.99,,,-99.99,,2013-01-31 04:52:00,